Weather History for KNQA - April, 2013

Change the Weather History Date:

Thursday, April 11, 2013

  Actual Average Record
Temperature  
Mean Temperature 55 °F -  
Max Temperature 68 °F 70 °F 86 °F (2001)
Min Temperature 42 °F 50 °F 41 °F (2003)
Degree Days  
Heating Degree Days 10    
Growing Degree Days 5 (Base 50)    
Moisture  
Dew Point 51 °F    
Average Humidity 96    
Maximum Humidity 100    
Minimum Humidity 82    
Precipitation  
Precipitation 0.00 in - - ()
Sea Level Pressure  
Sea Level Pressure 29.74 in    
Wind  
Wind Speed 6 mph (WNW)    
Max Wind Speed 13 mph    
Max Gust Speed -    
Visibility 7 miles    
Events Rain , Thunderstorm    
Averages and records for this station are not official NWS values.
T = Trace of Precipitation, MM = Missing Value Source: NWS Daily Summary

Daily Weather History Graph

Daily Weather History Graph

Search for Another Location

Airport or City:

Trip Planner

Search our weather history database for the weather conditions in past years. The results will help you decide how hot, cold, wet, or windy it might be!

Date:

Astronomy

Apr. 11, 2013 Rise Set
Actual Time 6:32 AM CDT 7:29 PM CDT
Civil Twilight 6:06 AM CDT 7:55 PM CDT
Nautical Twilight 5:35 AM CDT 8:26 PM CDT
Astronomical Twilight 5:03 AM CDT 8:58 PM CDT
Moon 7:06 AM CDT (4/11) 8:59 PM CDT (4/11)
Length of Visible Light 13h 49m
Length of Day
12h 57m
New Moon, 2% of the Moon is Illuminated
Apr 11
New Moon
Apr 18
First Quarter
Apr 25
Full
May 2
Last Quarter
May 9
New

Hourly Weather History & Observations

Time (CDT) Temp. Windchill Dew Point Humidity Pressure Visibility Wind Dir Wind Speed Gust Speed Precip Events Conditions
12:55 AM 66.2 °F - 66.2 °F 100% 29.71 in 5.0 mi Calm Calm - N/A Rain , Thunderstorm Light Thunderstorms and Rain
1:55 AM 68.0 °F - 68.0 °F 100% 29.72 in 6.0 mi SSE 5.8 mph - N/A Rain Light Rain
2:55 AM 64.4 °F - 64.4 °F 100% 29.71 in 5.0 mi West 9.2 mph - N/A   Overcast
3:15 AM 64.4 °F - 62.6 °F 94% 29.72 in 7.0 mi West 8.1 mph - N/A   Overcast
3:35 AM 62.6 °F - 62.6 °F 100% 29.74 in 4.0 mi WSW 9.2 mph - N/A   Overcast
3:55 AM 60.8 °F - 60.8 °F 100% 29.74 in 3.0 mi WNW 9.2 mph - N/A   Overcast
4:15 AM 59.0 °F - 57.2 °F 94% 29.73 in 7.0 mi WNW 10.4 mph - N/A   Overcast
4:35 AM 55.4 °F - 55.4 °F 100% 29.74 in 5.0 mi WNW 8.1 mph - N/A   Overcast
4:55 AM 53.6 °F - 53.6 °F 100% 29.73 in 7.0 mi NNW 8.1 mph - N/A   Overcast
5:15 AM 53.6 °F - 53.6 °F 100% 29.71 in 8.0 mi WNW 4.6 mph - N/A   Overcast
5:35 AM 53.6 °F - 51.8 °F 94% 29.71 in 5.0 mi Calm Calm - N/A   Mostly Cloudy
5:55 AM 53.6 °F - 53.6 °F 100% 29.72 in 5.0 mi WSW 4.6 mph - N/A Rain Light Rain
6:55 AM 53.6 °F - 53.6 °F 100% 29.78 in 5.0 mi West 12.7 mph - N/A Rain Light Rain
7:55 AM 50.0 °F - 50.0 °F 100% 29.76 in 6.0 mi WNW 11.5 mph - N/A Rain Light Rain
8:55 AM 48.2 °F - 48.2 °F 100% 29.76 in 5.0 mi WNW 11.5 mph - N/A Rain Light Rain
9:55 AM 48.2 °F - 48.2 °F 100% 29.75 in 6.0 mi WNW 5.8 mph - N/A Rain Light Rain
10:55 AM 48.2 °F - 48.2 °F 100% 29.79 in 6.0 mi WNW 5.8 mph - N/A Rain Light Rain
12:55 PM 46.4 °F 43.5 °F 46.4 °F 100% 29.77 in 5.0 mi West 5.8 mph - N/A Rain Light Rain
1:55 PM 48.2 °F - 46.4 °F 93% 29.72 in 9.0 mi WNW 8.1 mph - N/A Rain Light Rain
2:55 PM 48.2 °F - 46.4 °F 93% 29.72 in 10.0 mi NW 5.8 mph - N/A   Overcast
3:55 PM 48.2 °F - 46.4 °F 93% 29.67 in 10.0 mi NNW 8.1 mph - N/A   Overcast
4:55 PM 50.0 °F - 46.4 °F 87% 29.72 in 10.0 mi West 9.2 mph - N/A   Overcast
5:55 PM 48.2 °F - 44.6 °F 87% 29.74 in 10.0 mi WNW 8.1 mph - N/A   Mostly Cloudy
6:55 PM 48.2 °F - 42.8 °F 82% 29.74 in 10.0 mi West 9.2 mph - N/A   Scattered Clouds
7:55 PM 46.4 °F 45.2 °F 42.8 °F 87% 29.75 in 10.0 mi West 3.5 mph - N/A   Partly Cloudy
8:55 PM 44.6 °F - 42.8 °F 93% 29.77 in 10.0 mi Calm Calm - N/A   Clear
9:55 PM 44.6 °F - 42.8 °F 93% 29.79 in 10.0 mi Calm Calm - N/A   Clear
10:55 PM 42.8 °F 40.1 °F 42.8 °F 100% 29.81 in 10.0 mi WSW 4.6 mph - N/A   Clear
11:55 PM 42.8 °F - 42.8 °F 100% 29.81 in 10.0 mi Calm Calm - N/A   Clear